Terminal Aerodrome Forecast
Issued by NWS

Home | Current Version | Previous Version | Text Only | Print | Product List | Glossary On
Versions: 1 2 3 4 5 6 7 8 9 10 11 12 13 14 15 16 17 18 19 20 21 22 23 24 25 26 27 28 29 30 31 32
992
FTUS43 KILX 190538
TAFCMI
TAF
KCMI 190538Z 1906/2006 16007KT 6SM BR SCT200
     FM190700 16006KT 5SM BR BKN035
     FM191800 12007KT 5SM -SHRA BR OVC025
     FM192100 11008KT 2SM -SHRA BR OVC008
     FM200000 10009KT 2SM SHRA BR OVC003=

USA.gov is the U.S. government's official web portal to all federal, state and local government web resources and services.